FW5493 Weather Reports


Display with metric or nautical units.
time (UTC)temp
F
wind
direction
speed
MPH
gust
MPH
rain 1hr
in
rain 24hr
in
rain mn
in
humidity
%
barometer
mb
20260902184538 78 209 3.0 8.0 0.00 0.00 0.00 40 1008.1
20260902183040 77 110 1.0 7.0 0.00 0.00 0.00 39 1008.0
20260902181534 77 167 5.0 11.0 0.00 0.00 0.00 40 1008.1
20260902180052 76 121 8.0 14.0 0.00 0.00 0.00 39 1008.6
20260902174536 76 184 7.0 14.0 0.00 0.00 0.00 42 1008.5
20260902173036 76 215 9.0 15.0 0.00 0.00 0.00 41 1008.8
20260902171548 75 143 7.0 14.0 0.00 0.00 0.00 43 1008.9
20260902170036 72 169 7.0 15.0 0.00 0.00 0.00 47 1009.2
20260902164535 72 194 7.0 16.0 0.00 0.00 0.00 48 1009.3
20260902163038 71 163 8.0 16.0 0.00 0.00 0.00 50 1009.2
20260902161541 70 200 9.0 19.0 0.00 0.00 0.00 49 1009.4
20260902160034 68 143 8.0 16.0 0.00 0.00 0.00 54 1009.7
20260902154535 67 150 6.0 15.0 0.00 0.00 0.00 56 1009.5
20260902153036 67 161 7.0 16.0 0.00 0.00 0.00 57 1009.6
20260902151536 67 150 7.0 12.0 0.00 0.00 0.00 58 1009.8
20260902150034 66 180 3.0 8.0 0.00 0.00 0.00 59 1009.9
20260902144537 64 90 0.0 3.0 0.00 0.00 0.00 61 1010.0
20260902143038 62 0 3.0 7.0 0.00 0.00 0.00 65 1010.3
20260902141538 61 0 0.0 3.0 0.00 0.00 0.00 67 1010.2
20260902140039 60 26 0.0 5.0 0.00 0.00 0.00 68 1010.3
20260902134535 60 129 4.0 10.0 0.00 0.00 0.00 68 1010.0
20260902133035 60 146 5.0 9.0 0.00 0.00 0.00 66 1010.2
20260902131538 59 186 3.0 6.0 0.00 0.00 0.00 67 1010.3
20260902130041 59 152 3.0 6.0 0.00 0.00 0.00 66 1010.6
20260902124535 59 173 2.0 5.0 0.00 0.00 0.00 66 1010.7
20260902123035 59 180 2.0 5.0 0.00 0.00 0.00 66 1010.6
20260902121535 59 279 1.0 3.0 0.00 0.00 0.00 66 1010.6
20260902120033 59 155 1.0 3.0 0.00 0.00 0.00 64 1010.7
20260902114602 60 0 0.0 3.0 0.00 0.00 0.00 64 1010.7
20260902113041 62 0 0.0 3.0 0.00 0.00 0.00 60 1011.0
20260902111537 63 0 0.0 3.0 0.00 0.00 0.00 59 1011.0
20260902110039 63 155 2.0 6.0 0.00 0.00 0.00 60 1011.0
20260902104539 63 136 3.0 8.0 0.00 0.00 0.00 59 1011.1
20260902103035 63 131 6.0 10.0 0.00 0.00 0.00 58 1010.9
20260902101534 64 113 2.0 6.0 0.00 0.00 0.00 56 1010.5
20260902100033 65 0 0.0 4.0 0.00 0.00 0.00 54 1010.6
20260902094535 67 0 0.0 10.0 0.00 0.00 0.00 50 1010.8
20260902093035 68 243 5.0 14.0 0.00 0.00 0.00 49 1011.2
20260902091546 68 205 10.0 19.0 0.00 0.00 0.00 49 1011.5
20260902090044 68 196 11.0 18.0 0.00 0.00 0.00 49 1011.6
20260902084535 68 215 12.0 25.0 0.00 0.00 0.00 48 1011.7
20260902083034 69 205 14.0 20.0 0.00 0.00 0.00 46 1011.8
20260902081540 69 229 14.0 22.0 0.00 0.00 0.00 47 1011.7
20260902080033 68 236 10.0 20.0 0.00 0.00 0.00 48 1011.8
20260902074547 67 250 9.0 17.0 0.00 0.00 0.00 48 1011.5
20260902073038 66 224 5.0 9.0 0.00 0.00 0.00 49 1011.4
20260902071534 67 0 0.0 8.0 0.00 0.00 0.00 48 1011.0
20260902070039 67 224 4.0 10.0 0.00 0.00 0.00 48 1010.9
20260902064539 67 200 4.0 9.0 0.00 0.00 0.00 48 1011.0
20260902063036 68 206 7.0 17.0 0.00 0.00 0.00 46 1010.9
20260902061543 70 189 11.0 20.0 0.00 0.00 0.00 44 1011.1
20260902060051 70 217 11.0 19.0 0.00 0.00 0.00 44 1011.1
20260902054541 66 250 12.0 18.0 0.00 0.00 0.00 49 1011.1
20260902053050 65 260 3.0 9.0 0.00 0.00 0.00 50 1011.0
20260902051540 62 149 5.0 8.0 0.00 0.00 0.00 55 1010.9
20260902050043 63 94 2.0 7.0 0.00 0.00 0.00 52 1010.8
20260902044539 63 96 2.0 6.0 0.00 0.00 0.00 53 1010.7
20260902043037 65 101 3.0 7.0 0.00 0.00 0.00 51 1010.7
20260902041539 65 0 0.0 4.0 0.00 0.00 0.00 48 1010.6
20260902040040 67 83 1.0 3.0 0.00 0.00 0.00 47 1010.8
20260902034540 69 0 1.0 9.0 0.00 0.00 0.00 45 1010.6
20260902033034 67 0 3.0 7.0 0.00 0.00 0.00 45 1010.5
20260902031538 69 77 3.0 9.0 0.00 0.00 0.00 42 1010.5
20260902030035 70 75 5.0 11.0 0.00 0.00 0.00 40 1010.3
20260902024538 70 68 8.0 11.0 0.00 0.00 0.00 41 1010.3
20260902023042 72 64 6.0 9.0 0.00 0.00 0.00 40 1010.3
20260902021537 74 65 7.0 11.0 0.00 0.00 0.00 37 1010.3
20260902020036 75 69 6.0 9.0 0.00 0.00 0.00 37 1010.4
20260902014539 77 84 6.0 10.0 0.00 0.00 0.00 36 1010.4
20260902013033 78 78 5.0 9.0 0.00 0.00 0.00 36 1010.3
20260902011539 79 82 6.0 10.0 0.00 0.00 0.00 35 1010.3
20260902010036 80 83 7.0 11.0 0.00 0.00 0.00 33 1010.3
20260902004538 82 76 7.0 11.0 0.00 0.00 0.00 32 1010.3
20260902003039 83 74 7.0 10.0 0.00 0.00 0.00 30 1010.3
20260902001548 84 81 2.0 7.0 0.00 0.00 0.00 30 1010.4
20260902000041 85 79 4.0 10.0 0.00 0.00 0.00 26 1010.4
20260901234537 86 96 4.0 8.0 0.00 0.00 0.00 25 1010.5
20260901233053 87 132 3.0 8.0 0.00 0.00 0.00 24 1010.4
20260901231533 87 112 6.0 10.0 0.00 0.00 0.00 22 1010.6
20260901230037 86 119 3.0 12.0 0.00 0.00 0.00 22 1010.6
20260901224537 87 125 4.0 10.0 0.00 0.00 0.00 24 1010.9
20260901223034 86 139 2.0 8.0 0.00 0.00 0.00 24 1011.0
20260901221533 86 184 6.0 10.0 0.00 0.00 0.00 23 1011.3
20260901220105 86 123 8.0 16.0 0.00 0.00 0.00 22 1011.6
20260901214538 86 107 6.0 14.0 0.00 0.00 0.00 21 1011.7
20260901213034 85 151 5.0 12.0 0.00 0.00 0.00 25 1011.7
20260901211539 85 0 1.0 8.0 0.00 0.00 0.00 27 1012.0
20260901210041 84 142 2.0 10.0 0.00 0.00 0.00 28 1012.1
20260901204535 83 42 3.0 12.0 0.00 0.00 0.00 31 1012.2
20260901203038 83 74 6.0 13.0 0.00 0.00 0.00 30 1012.4
20260901201539 83 71 7.0 12.0 0.00 0.00 0.00 30 1012.8
20260901200037 81 65 7.0 11.0 0.00 0.00 0.00 34 1012.8
20260901194540 80 87 3.0 8.0 0.00 0.00 0.00 34 1013.1
20260901193037 81 111 7.0 13.0 0.00 0.00 0.00 31 1013.3
20260901191537 81 114 2.0 9.0 0.00 0.00 0.00 34 1013.5
20260901190036 80 79 1.0 8.0 0.00 0.00 0.00 34 1013.6